Showing default

COSMOS 1275, 12504

Orbit data source: Space-Track

COSMOS 1275, 12504 is a payload satellite owned by VMF (CIS) in LEO that was launched on Thu, 04 Jun 1981 UTC via a KOSMOS 11K65M launch vehicle from the Plesetsk Missile And Space Complex (PKMTR). Payload-class satellites include a variety of spacecraft equipped with specific instruments for various scientific and technological missions. These include communications satellites like Starlink; space stations such as the ISS; scientific satellites like the Hubble; Earth observation satellites from companies like Planet Labs, Umbra, and HawkEye 360; GPS; miniature CubeSats for education and research; and military/defense satellites.

Loading next visibility...
Identifier
12504, 1981-053A
Orbit
LEO
Country
Flag of CISCIS
Related business
Manufacturer
Omsk Av. Zav.
Mission
Spacecraft
Bus & Motor
KAUR-1 11F627, Unknown motor
Mass
800 kg wet, 800 kg dry
Launch date (UTC)
1981-06-04 (45 years ago)
Launch vehicle
KOSMOS 11K65M
Launch site
Plesetsk Missile And Space Complex (PKMTR)
Object type
Payload
Rocket body
Debris
Shape & HBR
Unknown
Radar Cross Section
Large (>1 m²)

Expand to show TLE details & history
Last TLE update: 9 hours ago

TLE from 9 hours ago
0 COSMOS 1275
1 12504U 81053A   25353.59404850  .00000064  00000-0  52035-4 0  9991
2 12504  82.9606  38.0725 0038759 321.2929  38.5450 13.74518201234602
Epoch: 2025-12-19T14:15Z
TLE epoch observation values (Epoch: 2025-12-19T14:15:25.790Z)
Latitude
-0.00005°
Longitude
95.78207°
Altitude
964.017 km
Speed
7.381 km/s
True Right ascension
02h 32m 17s
True Declination
0° 00' 00"
Sunlit
Object was in full shadow at epoch
Visualization orbit readout
Latitude
Unknown
Longitude
Unknown
Altitude
Unknown
Speed
Unknown
Apparent Right ascension
Unknown
Apparent Declination
Unknown
Sunlit
N/A
Visualization observer readout
Local Sidereal Time
22:09:50
Azimuth
Unknown
Elevation
Unknown
Doppler factor
Unknown
Orbital elements
Apogee altitude
1,009.065 km
Perigee altitude
952.022 km
Semi-major axis
7,358.68 km
Eccentricity
0.00388
Inclination
82.9606°
RAAN
38.0725°
Arg. of periapsis
321.2929°
True anomaly
38.82281°
Mean anomaly
38.545°
Eccentric anomaly
38.6838°
Mean motion
3.4383 °/min
Orbital period
104.7 mins
BSTAR
0.000052035
Loading maneuver chart data...
Computing Atmospheric mass density...
Loading historical data...
Loading historical data...
Loading historical data...
Loading historical data...
Loading historical data...
Loading historical data...
Loading historical data...

Documentation

Showing up to 5 results
|